sat.trackr.live / text

‹ back to catalog

MERIDIAN 8

NORAD 44453 · 2019-046A

PAYLOAD ACTIVE UNKNOWN

§ Identity

Operator
Country
CIS
Launch date
2019-07-30
Launch site
PLMSC
Launch vehicle
Mass (kg)
RCS (m²)

External: N2YO · Heavens-Above · Gunter

§ Orbital elements

Epoch: 2026-09-15T22:41:40.614144Z

Period
717.81 min
Inclination
63.2088°
Eccentricity
0.7098206
Mean motion
2.00609275 rev/d
Perigee alt
1,328.0 km
Apogee alt
39,028.4 km
Semi-major
26,556.3 km
B*
0.0000e+0
RAAN
38.9430°
Arg perigee
275.0635°
Mean anomaly
14.5857°
Rev number
5,216

§ Raw data

MERIDIAN 81 44453U 19046A   26258.94560896  .00000060  00000+0  00000+0 0  99942 44453  63.2088  38.9430 7098206 275.0635  14.5857  2.00609275 52161

JSON: /api/v1/satellites/44453 · /tle

For live sub-satellite position, see the globe view (requires WebGL).

§ Visibility from observer

Set your observer location to see the next 7 days of passes ≥ 10°. The values pass through the URL so the page stays shareable.

No JS? Fill the form by hand. The geolocation button needs JavaScript.